When you browse on this site, cookies collect data to enhance your experience and personalize the content and advertising you see.
Visit our Privacy Policy to learn more. By continuing to use the site, you agree to this use of cookies and data.
  • In Spain
  • List of Countries
  • For 7 days
  • Water Temperature
  • Weather Map
  • Weather Widgets
  • user-avatar
    Login

    Hourly Weather Kruhlyk

    Today, 21 September, Saturday

    Time Temperature Precipitation Wind Pressure Humidity
    00:00 +5°C° 0 mm 3 mps 749 mmHg 78%
    01:00 +4°C° 0 mm 3 mps 749 mmHg 80%
    02:00 +4°C° 0 mm 3 mps 749 mmHg 82%
    03:00 +5°C° 0 mm 2 mps 749 mmHg 83%
    04:00 +4°C° 0 mm 2 mps 749 mmHg 84%
    05:00 +4°C° 0 mm 2 mps 749 mmHg 85%
    06:00 +5°C° 0 mm 2 mps 750 mmHg 79%
    07:00 +7°C° 0 mm 2 mps 750 mmHg 73%
    08:00 +8°C° 0 mm 3 mps 750 mmHg 68%
    09:00 +10°C° 0 mm 3 mps 750 mmHg 61%
    10:00 +12°C° 0 mm 4 mps 750 mmHg 54%
    11:00 +14°C° 0 mm 4 mps 749 mmHg 47%
    12:00 +14°C° 0 mm 5 mps 749 mmHg 46%
    13:00 +15°C° 0 mm 5 mps 749 mmHg 46%
    14:00 +15°C° 0 mm 5 mps 749 mmHg 46%
    15:00 +15°C° 0 mm 5 mps 748 mmHg 48%
    16:00 +15°C° 0 mm 4 mps 748 mmHg 49%
    17:00 +14°C° 0 mm 3 mps 748 mmHg 51%
    18:00 +14°C° 0 mm 2 mps 748 mmHg 55%
    19:00 +13°C° 0 mm 2 mps 748 mmHg 59%
    20:00 +12°C° 0 mm 1 mps 748 mmHg 63%
    21:00 +12°C° 0 mm 1 mps 748 mmHg 65%
    22:00 +10°C° 0 mm 2 mps 748 mmHg 66%
    23:00 +10°C° 0 mm 2 mps 748 mmHg 68%

    Tomorrow, 22 September, Sunday

    Time Temperature Precipitation Wind Pressure Humidity
    00:00 +9°C° 0 mm 2 mps 748 mmHg 69%
    01:00 +9°C° 0 mm 2 mps 748 mmHg 69%
    02:00 +9°C° 0 mm 2 mps 748 mmHg 70%
    03:00 +8°C° 0 mm 2 mps 747 mmHg 70%
    04:00 +9°C° 0 mm 1 mps 747 mmHg 70%
    05:00 +9°C° 0 mm 1 mps 747 mmHg 70%
    06:00 +10°C° 0 mm 1 mps 747 mmHg 65%
    07:00 +10°C° 0 mm 2 mps 747 mmHg 60%
    08:00 +13°C° 0 mm 2 mps 747 mmHg 55%
    09:00 +15°C° 0 mm 2 mps 746 mmHg 50%
    10:00 +17°C° 0 mm 3 mps 746 mmHg 45%
    11:00 +19°C° 0 mm 3 mps 746 mmHg 39%
    12:00 +20°C° 0 mm 3 mps 746 mmHg 38%
    13:00 +21°C° 0 mm 4 mps 745 mmHg 37%
    14:00 +22°C° 0 mm 4 mps 745 mmHg 36%
    15:00 +22°C° 0 mm 3 mps 744 mmHg 39%
    16:00 +21°C° 0 mm 3 mps 744 mmHg 41%
    17:00 +21°C° 0 mm 2 mps 744 mmHg 44%
    18:00 +19°C° 0 mm 2 mps 744 mmHg 50%
    19:00 +18°C° 0 mm 1 mps 744 mmHg 56%
    20:00 +15°C° 0 mm 1 mps 744 mmHg 63%
    21:00 +13°C° 0 mm 0 mps 744 mmHg 65%
    22:00 +13°C° 0 mm 0 mps 744 mmHg 67%
    23:00 +12°C° 0 mm 0 mps 744 mmHg 69%

    Day after tomorrow, 23 September, Monday

    Time Temperature Precipitation Wind Pressure Humidity
    00:00 +12°C° 0 mm 0 mps 744 mmHg 71%
    01:00 +12°C° 0 mm 0 mps 744 mmHg 72%
    02:00 +11°C° 0 mm 0 mps 744 mmHg 73%
    03:00 +11°C° 0 mm 0 mps 744 mmHg 75%
    04:00 +10°C° 0 mm 0 mps 743 mmHg 77%
    05:00 +10°C° 0 mm 0 mps 743 mmHg 78%
    06:00 +11°C° 0 mm 0 mps 743 mmHg 74%
    07:00 +13°C° 0 mm 0 mps 743 mmHg 69%
    08:00 +14°C° 0 mm 0 mps 743 mmHg 64%
    09:00 +18°C° 0 mm 1 mps 743 mmHg 58%
    10:00 +18°C° 0 mm 2 mps 743 mmHg 52%
    11:00 +20°C° 0 mm 2 mps 743 mmHg 47%
    12:00 +21°C° 0 mm 2 mps 743 mmHg 43%
    13:00 +23°C° 0 mm 2 mps 742 mmHg 40%
    14:00 +24°C° 0 mm 2 mps 742 mmHg 37%
    15:00 +23°C° 0 mm 2 mps 742 mmHg 39%
    16:00 +23°C° 0 mm 2 mps 742 mmHg 41%
    17:00 +23°C° 0 mm 1 mps 741 mmHg 43%
    18:00 +20°C° 0 mm 2 mps 741 mmHg 47%
    19:00 +18°C° 0 mm 2 mps 742 mmHg 50%
    20:00 +17°C° 0 mm 2 mps 742 mmHg 54%
    21:00 +16°C° 0 mm 3 mps 742 mmHg 60%
    22:00 +14°C° 0 mm 3 mps 742 mmHg 66%
    23:00 +13°C° 0 mm 3 mps 742 mmHg 73%

    24 September, Tuesday

    Time Temperature Precipitation Wind Pressure Humidity
    00:00 +12°C° 0 mm 3 mps 742 mmHg 75%
    01:00 +11°C° 0 mm 3 mps 742 mmHg 77%
    02:00 +12°C° 0 mm 2 mps 742 mmHg 79%
    03:00 +10°C° 0 mm 2 mps 741 mmHg 80%
    04:00 +10°C° 0 mm 2 mps 741 mmHg 81%
    05:00 +9°C° 0 mm 2 mps 741 mmHg 83%
    06:00 +10°C° 0 mm 2 mps 741 mmHg 78%
    07:00 +12°C° 0 mm 2 mps 741 mmHg 74%
    08:00 +12°C° 0 mm 2 mps 741 mmHg 70%
    09:00 +14°C° 0 mm 2 mps 741 mmHg 63%
    10:00 +16°C° 0 mm 2 mps 741 mmHg 57%
    11:00 +18°C° 0 mm 2 mps 741 mmHg 51%
    12:00 +20°C° 0 mm 2 mps 741 mmHg 47%
    13:00 +21°C° 0 mm 2 mps 740 mmHg 44%
    14:00 +22°C° 0 mm 3 mps 740 mmHg 41%
    15:00 +21°C° 0 mm 3 mps 740 mmHg 43%
    16:00 +21°C° 0 mm 3 mps 740 mmHg 45%
    17:00 +20°C° 0 mm 3 mps 739 mmHg 47%
    18:00 +18°C° 0 mm 3 mps 739 mmHg 54%
    19:00 +16°C° 0 mm 3 mps 740 mmHg 61%
    20:00 +14°C° 0 mm 2 mps 740 mmHg 68%
    21:00 +14°C° 0 mm 2 mps 740 mmHg 71%
    22:00 +13°C° 0 mm 2 mps 740 mmHg 74%
    23:00 +13°C° 0 mm 1 mps 740 mmHg 78%

    25 September, Wednesday

    Time Temperature Precipitation Wind Pressure Humidity
    00:00 +12°C° 0 mm 1 mps 740 mmHg 80%
    01:00 +12°C° 0 mm 1 mps 740 mmHg 82%
    02:00 +12°C° 0 mm 1 mps 740 mmHg 85%
    03:00 +12°C° 0 mm 1 mps 740 mmHg 85%
    04:00 +12°C° 0 mm 1 mps 739 mmHg 86%
    05:00 +11°C° 0 mm 1 mps 739 mmHg 87%
    06:00 +12°C° 0 mm 2 mps 739 mmHg 83%
    07:00 +13°C° 0 mm 2 mps 739 mmHg 79%
    08:00 +14°C° 0 mm 2 mps 740 mmHg 75%
    09:00 +16°C° 0 mm 3 mps 740 mmHg 72%
    10:00 +17°C° 0 mm 4 mps 740 mmHg 68%
    11:00 +18°C° 0 mm 4 mps 740 mmHg 64%
    12:00 +17°C° 0.4 mm 4 mps 739 mmHg 70%
    13:00 +17°C° 0.4 mm 4 mps 739 mmHg 76%
    14:00 +15°C° 0.4 mm 4 mps 739 mmHg 82%
    15:00 +16°C° 1.1 mm 3 mps 739 mmHg 85%
    16:00 +14°C° 1.1 mm 3 mps 739 mmHg 89%
    17:00 +14°C° 1.1 mm 3 mps 738 mmHg 93%
    18:00 +13°C° 0.3 mm 3 mps 739 mmHg 92%
    19:00 +13°C° 0.3 mm 3 mps 739 mmHg 92%
    20:00 +13°C° 0.3 mm 3 mps 739 mmHg 91%
    21:00 +13°C° 0.1 mm 3 mps 739 mmHg 91%
    22:00 +13°C° 0.1 mm 3 mps 739 mmHg 92%
    23:00 +13°C° 0.1 mm 3 mps 739 mmHg 92%

    26 September, Thursday

    Time Temperature Precipitation Wind Pressure Humidity
    00:00 +13°C° 0 mm 3 mps 738 mmHg 93%
    01:00 +13°C° 0 mm 3 mps 738 mmHg 94%
    02:00 +14°C° 0 mm 2 mps 738 mmHg 95%
    03:00 +14°C° 0.1 mm 2 mps 738 mmHg 95%
    04:00 +14°C° 0.1 mm 1 mps 738 mmHg 96%
    05:00 +14°C° 0.1 mm 1 mps 738 mmHg 96%
    06:00 +14°C° 0.2 mm 1 mps 738 mmHg 96%
    07:00 +14°C° 0.2 mm 1 mps 738 mmHg 95%
    08:00 +14°C° 0.2 mm 1 mps 739 mmHg 95%
    09:00 +14°C° 0.2 mm 1 mps 739 mmHg 92%
    10:00 +15°C° 0.2 mm 2 mps 739 mmHg 89%
    11:00 +15°C° 0.2 mm 2 mps 740 mmHg 86%
    12:00 +16°C° 0 mm 2 mps 740 mmHg 82%
    13:00 +17°C° 0 mm 2 mps 740 mmHg 79%
    14:00 +17°C° 0 mm 2 mps 740 mmHg 75%
    15:00 +17°C° 0.4 mm 2 mps 740 mmHg 76%
    16:00 +17°C° 0.4 mm 3 mps 740 mmHg 78%
    17:00 +17°C° 0.4 mm 3 mps 740 mmHg 79%
    18:00 +16°C° 0.1 mm 3 mps 740 mmHg 82%
    19:00 +15°C° 0.1 mm 2 mps 741 mmHg 86%
    20:00 +14°C° 0.1 mm 2 mps 741 mmHg 90%
    21:00 +14°C° 0 mm 2 mps 741 mmHg 90%
    22:00 +13°C° 0 mm 2 mps 742 mmHg 91%
    23:00 +13°C° 0 mm 2 mps 742 mmHg 92%
    Show more